Provo, UT

12:54 PM MDT on September 30, 2016 (GMT -0600)
Provo Municipal

Weather History for KPVU - November, 2012

Change the Weather History Date:

Sunday, November 25, 2012

  Actual Average Record
Temperature  
Mean Temperature 37 °F -  
Max Temperature 48 °F 42 °F 63 °F (1990)
Min Temperature 26 °F 26 °F 6 °F (2010)
Degree Days  
Heating Degree Days 28    
Moisture  
Dew Point 27 °F    
Average Humidity 76    
Maximum Humidity 93    
Minimum Humidity 46    
Precipitation  
Precipitation 0.00 in - - ()
Sea Level Pressure  
Sea Level Pressure 30.05 in    
Wind  
Wind Speed 4 mph (NE)    
Max Wind Speed 14 mph    
Max Gust Speed -    
Visibility 11 miles    
Events      
Averages and records for this station are not official NWS values.
T = Trace of Precipitation, MM = Missing Value Source: NWS Daily Summary

Daily Weather History Graph

Daily Weather History Graph

Search for Another Location

Airport or City:

Trip Planner

Search our weather history database for the weather conditions in past years. The results will help you decide how hot, cold, wet, or windy it might be!

Date:

Astronomy

Nov. 25, 2012 Rise Set
Actual Time 7:24 AM MST 5:03 PM MST
Civil Twilight 6:54 AM MST 5:33 PM MST
Nautical Twilight 6:21 AM MST 6:06 PM MST
Astronomical Twilight 5:48 AM MST 6:39 PM MST
Moon 3:22 PM MST (11/25) 4:41 AM MST (11/25)
Length of Visible Light 10h 38m
Length of Day
9h 38m
Waxing Gibbous, 93% of the Moon is Illuminated
Nov 25
Waxing Gibbous
Nov 28
Full
Dec 6
Last Quarter
Dec 13
New
Dec 19
First Quarter

Hourly Weather History & Observations

Time (MST) Temp. Windchill Dew Point Humidity Pressure Visibility Wind Dir Wind Speed Gust Speed Precip Events Conditions
12:15 AM 30.2 °F 25.4 °F 26.6 °F 86% 30.08 in 10.0 mi North 4.6 mph - N/A   Clear
12:35 AM 33.8 °F 30.8 °F 28.4 °F 81% 30.07 in 10.0 mi NW 3.5 mph - N/A   Clear
12:55 AM 30.2 °F - 24.8 °F 80% 30.06 in 10.0 mi Calm Calm - N/A   Clear
1:35 AM 35.6 °F 29.9 °F 26.6 °F 70% 30.05 in 10.0 mi ESE 6.9 mph - N/A   Clear
1:55 AM 30.2 °F - 24.8 °F 80% 30.05 in 10.0 mi Calm Calm - N/A   Clear
2:15 AM 28.4 °F - 24.8 °F 86% 30.04 in 10.0 mi Calm Calm - N/A   Clear
2:35 AM 28.4 °F - 26.6 °F 93% 30.04 in 10.0 mi Calm Calm - N/A   Clear
2:55 AM 28.4 °F - 21.2 °F 74% 30.05 in 10.0 mi Calm Calm - N/A   Clear
3:15 AM 37.4 °F - 24.8 °F 60% 30.04 in 10.0 mi Calm Calm - N/A   Clear
3:35 AM 30.2 °F 26.7 °F 26.6 °F 86% 30.04 in 10.0 mi SE 3.5 mph - N/A   Clear
3:55 AM 28.4 °F 22.2 °F 24.8 °F 86% 30.03 in 10.0 mi ESE 5.8 mph - N/A   Clear
4:15 AM 32.0 °F 25.6 °F 26.6 °F 80% 30.02 in 10.0 mi SSE 6.9 mph - N/A   Clear
4:35 AM 28.4 °F 20.4 °F 21.2 °F 74% 30.02 in 10.0 mi East 8.1 mph - N/A   Clear
4:55 AM 30.2 °F 24.3 °F 26.6 °F 86% 30.02 in 10.0 mi SE 5.8 mph - N/A   Clear
5:15 AM 28.4 °F - 24.8 °F 86% 30.02 in 10.0 mi Calm Calm - N/A   Clear
5:35 AM 28.4 °F 23.3 °F 26.6 °F 93% 30.01 in 10.0 mi ENE 4.6 mph - N/A   Clear
5:55 AM 26.6 °F 22.6 °F 24.8 °F 93% 30.01 in 10.0 mi NNE 3.5 mph - N/A   Clear
6:15 AM 26.6 °F - 23.0 °F 86% 30.02 in 10.0 mi Calm Calm - N/A   Clear
6:35 AM 28.4 °F 23.3 °F 24.8 °F 86% 30.02 in 10.0 mi North 4.6 mph - N/A   Clear
6:55 AM 28.4 °F 23.3 °F 21.2 °F 74% 30.03 in 10.0 mi NNW 4.6 mph - N/A   Clear
7:55 AM 26.6 °F 22.6 °F 23.0 °F 86% 30.03 in 15.0 mi Variable 3.5 mph - N/A   Partly Cloudy
9:55 AM 42.8 °F - 26.6 °F 53% 30.05 in 15.0 mi Calm Calm - N/A   Scattered Clouds
10:55 AM 44.6 °F 43.1 °F 26.6 °F 49% 30.04 in 15.0 mi WSW 3.5 mph - N/A   Scattered Clouds
11:50 AM 44.6 °F 40.2 °F 28.4 °F 53% 30.03 in 15.0 mi NW 8.1 mph - N/A   Mostly Cloudy
12:50 PM 46.4 °F 41.5 °F 26.6 °F 46% 30.01 in 15.0 mi NW 10.4 mph - N/A   Mostly Cloudy
1:50 PM 48.2 °F - 30.2 °F 50% 30.02 in 15.0 mi NW 10.4 mph - N/A   Mostly Cloudy
2:54 PM 46.4 °F 40.4 °F 30.2 °F 53% 30.01 in 15.0 mi NW 13.8 mph - N/A   Mostly Cloudy
3:50 PM 46.4 °F 41.1 °F 30.2 °F 53% 30.03 in 15.0 mi NW 11.5 mph - N/A   Mostly Cloudy
4:50 PM 42.8 °F 37.5 °F 30.2 °F 61% 30.03 in 15.0 mi NW 9.2 mph - N/A   Mostly Cloudy
5:50 PM 41.0 °F 35.2 °F 32.0 °F 70% 30.04 in 15.0 mi WNW 9.2 mph - N/A   Mostly Cloudy
7:50 PM 35.6 °F 30.7 °F 28.4 °F 75% 30.07 in 15.0 mi Variable 5.8 mph - N/A   Scattered Clouds
8:50 PM 33.8 °F - 30.2 °F 87% 30.09 in 15.0 mi Calm Calm - N/A   Scattered Clouds
9:15 PM 33.8 °F 30.8 °F 28.4 °F 81% 30.10 in 7.0 mi ENE 3.5 mph - N/A   Clear
9:35 PM 32.0 °F 28.7 °F 28.4 °F 87% 30.11 in 6.0 mi East 3.5 mph - N/A   Clear
9:55 PM 33.8 °F 27.7 °F 30.2 °F 87% 30.11 in 8.0 mi ESE 6.9 mph - N/A   Clear
10:15 PM 33.8 °F 29.6 °F 28.4 °F 81% 30.12 in 8.0 mi SSE 4.6 mph - N/A   Clear
10:35 PM 33.8 °F 27.7 °F 28.4 °F 81% 30.12 in 10.0 mi ESE 6.9 mph - N/A   Clear
11:15 PM 30.2 °F - 26.6 °F 86% 30.13 in 7.0 mi Calm Calm - N/A   Clear
11:55 PM 32.0 °F 28.7 °F 28.4 °F 87% 30.14 in 10.0 mi SE 3.5 mph - N/A   Clear